Showing default

KUIPER-00599, 69283

Orbit data source: Space-Track

KUIPER-00599, 69283 is a payload satellite owned by Kuiper Systems (US) in LEO that was launched on Fri, 29 May 2026 UTC via an ATLAS V 551 launch vehicle from the Air Force Eastern Test Range (AFETR). Payload-class satellites include a variety of spacecraft equipped with specific instruments for various scientific and technological missions. These include communications satellites like Starlink; space stations such as the ISS; scientific satellites like the Hubble; Earth observation satellites from companies like Planet Labs, Umbra, and HawkEye 360; GPS; miniature CubeSats for education and research; and military/defense satellites.

Loading next visibility...
Identifier
69283, 2026-118S
Orbit
LEO
Country
Flag of USUS
Related business
Manufacturer
Kuiper Systems
Mission
Operational spacecraft
Bus & Motor
KUIPER, Unknown motor
Mass
~490 kg wet, ~490 kg dry
Launch date (UTC)
2026-05-29 (3 weeks ago)
Launch vehicle
ATLAS V 551
Launch site
Air Force Eastern Test Range (AFETR)
Object type
Payload
Rocket body
Debris
Shape & HBR
Unknown
Radar Cross Section
Large (>1 m²)

Expand to show TLE details & history
Last TLE update: 19 hours ago

TLE from 19 hours ago
0 KUIPER-00599
1 69283U 26118S   26171.05616540  .00020745  00000-0  56599-3 0  9995
2 69283  51.8695  39.4088 0005889 176.7564 183.3462 15.37390286  4423
Epoch: 2026-06-20T01:20Z
TLE epoch observation values (Epoch: 2026-06-20T01:20:52.690Z)
Latitude
-0.00001°
Longitude
110.91298°
Altitude
458.609 km
Speed
7.637 km/s
True Right ascension
02h 37m 38s
True Declination
0° 00' 00"
Sunlit
Object was in daylight at epoch
Visualization orbit readout
Latitude
Unknown
Longitude
Unknown
Altitude
Unknown
Speed
Unknown
Apparent Right ascension
Unknown
Apparent Declination
Unknown
Sunlit
N/A
Visualization observer readout
Local Sidereal Time
07:12:34
Azimuth
Unknown
Elevation
Unknown
Doppler factor
Unknown
Orbital elements
Apogee altitude
458.321 km
Perigee altitude
450.274 km
Semi-major axis
6,832.434 km
Eccentricity
0.00059
Inclination
51.8695°
RAAN
39.4088°
Arg. of periapsis
176.7564°
True anomaly
183.34226°
Mean anomaly
183.3462°
Eccentric anomaly
183.34423°
Mean motion
3.84308 °/min
Orbital period
93.67 mins
BSTAR
0.00056599
Loading maneuver chart data...
Computing Atmospheric mass density...
Loading historical data...
Loading historical data...
Loading historical data...
Loading historical data...
Loading historical data...
Loading historical data...
Loading historical data...

Documentation

Showing up to 5 results
|